www.pogodaiklimat.ru
Время
и дата
14:53 26.05
15:53 26.05
16:53 26.05
17:53 26.05
18:53 26.05
19:53 26.05
20:53 26.05
21:53 26.05
22:53 26.05
23:53 26.05
00:53 27.05
01:53 27.05
02:53 27.05
03:53 27.05
04:53 27.05
05:53 27.05
06:53 27.05
07:53 27.05
08:53 27.05
09:53 27.05
10:53 27.05
11:53 27.05
12:53 27.05
13:01 27.05
13:53 27.05
14:53 27.05
15:53 27.05
16:53 27.05
17:53 27.05
18:53 27.05
19:53 27.05
20:53 27.05
21:53 27.05
22:53 27.05
23:53 27.05
00:53 28.05
01:53 28.05
02:53 28.05
03:53 28.05
04:53 28.05
05:53 28.05
06:01 28.05
06:14 28.05
06:53 28.05
07:37 28.05
07:53 28.05
08:08 28.05
08:53 28.05
Ветер
(напр.,м/с)
Видим. Явления Облачность Т
(С)
Тd
(С)
f
(%)
Тe
(С)
Тes
(С)
Комфортность P
(гПа)
Po
(гПа)
Тmin
(С)
Tmax
(С)
R
(мм)
R24
(мм)
S
(см)
ЮЗ 3 16 км ясно +20.6 +10.0 51 +23 +36 комфорт 1019.0 1013.1
нст 3 16 км 2/0 3600 m
[Ac]
+20.6 +10.0 51 +23 +31 комфорт 1018.7 1013.1 +15.0 +20.6
Ю 3 16 км ясно +20.0 +10.6 55 +22 +29 комфорт 1018.5 1012.7
ЮЗ 4 16 км 8/0 3000 m
[Ac]
+19.4 +10.0 55 +20 +22 1018.3 1012.4
ЮЗ 4 16 км ясно +16.7 +9.4 62 +16 +17 1018.8 1013.1
ЮЗ 3 16 км ясно +13.3 +8.9 75 +12 +12 1019.1 1013.4
ЮЗ 4 16 км ясно +11.1 +7.8 80 +9 +9 1020.0 1014.1
ЮЗ 3 16 км ясно +10.6 +7.8 83 +9 +9 1020.1 1014.4 +10.6 +20.6
ЮЗ 3 16 км ясно +10.0 +7.8 86 +8 +8 1020.4 1014.4
ЮЗ 3 16 км ясно +9.4 +7.8 90 +7 +7 1020.4 1014.7
З 2 16 км ясно +8.3 +7.2 93 +6 +6 1020.6 1014.7
З 2 16 км ясно +8.3 +7.2 93 +6 +6 1020.7 1014.7
штиль 0 16 км ясно +7.8 +6.7 93 +7 +7 1020.8 1015.1
СЗ 2 16 км ясно +7.8 +6.7 93 +6 +6 1020.7 1015.1 +7.2 +10.6
штиль 0 16 км ясно +7.2 +6.7 97 +6 +6 1020.9 1015.1
штиль 0 16 км ясно +8.9 +8.3 96 +8 +8 1021.2 1015.4
штиль 0 16 км ясно +11.1 +8.3 83 +10 +12 1021.6 1015.8
штиль 0 16 км ясно +12.8 +9.4 80 +12 +17 1021.8 1015.8
штиль 0 16 км ясно +15.0 +9.4 69 +15 +24 1021.5 1015.8
штиль 0 16 км ясно +15.6 +8.9 64 +15 +30 опасность
простуды
1021.3 1015.4 +6.7 +16.7
Ю 2 16 км ясно +17.2 +9.4 60 +18 +32 опасность
простуды
1020.7 1014.7
С 2 16 км ясно +19.4 +10.6 57 +21 +38 комфорт 1020.0 1014.1
штиль 0 16 км ясно +20.0 +10.6 55 +21 +46 комфорт 1019.4 1013.7
СЗ 2 16 км 5/5 60 м +20.6 +11.1 54 +23 +32 комфорт 1013.4
штиль 0 16 км ясно +20.6 +10.6 53 +22 +47 комфорт 1018.7 1012.7
ЮВ 2 16 км ясно +21.1 +11.1 53 +23 +39 комфорт 1018.1 1012.4
нст 3 16 км ясно +23.3 +11.7 48 +26 +36 жарко 1017.5 1011.7 +16.1 +23.3
С 2 16 км ясно +23.3 +12.8 52 +26 +35 жарко 1016.9 1011.0
ЮЗ 2 16 км ясно +21.1 +13.9 63 +24 +29 комфорт 1016.7 1011.0
ЮЗ 5 16 км ясно +17.8 +12.2 70 +17 +18 1016.9 1011.0
ЮЗ 5 16 км 8/8 1500 м +15.6 +10.6 72 +14 +14 1017.1 1011.4
ЮЗ 5
{8}
16 км 2/2 1650 м +13.9 +9.4 74 +12 +12 1017.7 1012.0
ЮЗ 3 16 км ясно +12.8 +8.9 77 +11 +11 1017.6 1011.7 +12.8 +23.9
ЮЗ 4 16 км 5/5 1650 м +12.2 +8.9 80 +10 +10 1017.7 1012.0
ЮЗ 5 16 км 8/8 1800 м +11.7 +8.3 80 +9 +9 1017.6 1011.7
ЮЗ 5 16 км 8/8 1500 м +11.1 +8.3 83 +8 +8 1017.7 1011.7
ЮЗ 5 16 км 10/10 1470 м +11.1 +8.3 83 +8 +8 1018.0 1012.0
ЮЗ 5 16 км 10/10 1080 м +11.1 +8.3 83 +8 +8 1018.3 1012.4
ЮЗ 4 16 км 8/8 1800 m
[Ac]
+10.6 +8.3 86 +8 +8 1018.5 1012.7 +10.6 +12.8
штиль 0 16 км ясно +10.0 +7.8 86 +9 +9 1018.8 1013.1
ЮЗ 2 16 км 5/5 870 м +10.6 +8.9 89 +9 +9 1019.5 1013.7
ЮЗ 2 16 км 8/8 870 м +11.1 +8.9 86 +10 +10 1014.1
ЮЗ 3 16 км 10/10 930 м +11.1 +8.9 86 +9 +9 1014.1
ЮЗ 2 16 км 5/5 1080 m
[Ac]
+12.2 +8.9 80 +11 +12 1019.8 1014.1
ЮЗ 2 16 км 8/8 750 м +12.8 +8.3 74 +12 +13 1014.4
ЮЗ 3 16 км 10/10 810 м +13.3 +8.9 75 +12 +12 1020.4 1014.4
З 3 16 км 8/8 810 м +13.3 +8.9 75 +12 +13 1014.4
З 2 16 км 2/0 2700 m
[Ac]
+14.4 +9.4 72 +14 +20 1020.2 1014.4
Местоположение метеостанции McMinnville Municipal Airport: широта 45.1947 долгота -123.1339 высота над уровнем моря 48 м.
В архиве по умолчанию представлена погода в МакМиннвилле за последние 1-2 суток. Обновление информации о фактической погоде в базе происходит ежечасно! Архивные данные за месяц целиком и за предыдущие месяцы Вы можете получить, выбрав интересующий диапазон дат из раскрывающегося списка и нажав кнопку "Ввод!".
Внимание! Архив погоды МЕТАР в базе сайта по станциям, не включенным в климатический монитор, хранится не более 60 дней. Нет смысла пытаться выбрать более раннюю дату.
*Определитесь, кто Вы:
Внимание! Время в таблицах - местное (без учета летнего времени). Для получения всемирного времени необходимо вычесть поправку, которая равна -8 ч.
Смотрите также архив погоды в соседних городах и на ближайших метеорологических станциях:
Партнеры нашего сайта:      
Пояснения к столбцам:
  • Ветер - указаны скорость ветра в м/с - средняя за 10 мин, порывы в срок и между сроками (в фигурных скобках) и направление, откуда дует ветер: С - северный,
  • СВ - северо-восточный, В - восточный, ЮВ - юго-восточный, Ю - южный, ЮЗ - юго-западный, З - западный, СЗ - северо-западный.
  • Видимость - горизонтальная дальность видимости в метрах или километрах. При видимости от 1 до 10 км при отсутствии осадков обычно наблюдается дымка, при ухудшении видимости до 1 км и менее - туман. В сухую погоду видимость может ухудшаться дымом, пылью или мглою.
  • Явления - указаны атмосферные явления, наблюдавшиеся в срок или в последний час перед сроком; фигурными скобками обозначены явления, наблюдавшиеся между сроками (за 1-3 часа до срока); квадратными скобками обозначены град или гололедные отложения с указанием их диаметра в мм.
  • Облачность - указаны через наклонную черту общая и нижняя облачность в баллах и высота нижней границы облаков в метрах; квадратными скобками обозначены формы облаков: Ci - перистые, Cs - перисто-слоистые, Cc - перисто-кучевые, Ac - высококучевые, As - высокослоистые, Sc - слоисто-кучевые, Ns - слоисто-дождевые, Cu - кучевые, Cb - кучево-дождевые. Подробнее классификацию облаков см. в Атласе облаков (PDF).
  • T - Температура воздуха - температура, измеренная на высоте 2 м над землей.
  • Td - Температура точки росы - температура, при понижении до которой содержащийся в воздухе водяной пар достигнет насыщения.
  • f - Относительная влажность воздуха - влажноcть воздуха, измеренная на высоте 2 м над землей.
  • Te - Эффективная температура - температура, которую ощущает одетый по сезону человек в тени. Характеристика душности погоды. При расчете учитывается влияние влажности воздуха и скорости ветра на теплоощущения человека.
  • Tes - Эффективная температура на солнце - температура, которую ощущает человек, с поправкой на солнечный нагрев. Характеристика знойности погоды. Зависит от высоты солнца над горизонтом, облачности и скорости ветра. Ночью, в пасмурную погоду, а также при ветре 12 м/с и более поправка равна нулю.
  • P - Атмосферное давление - приведенное к уровню моря атмосферное давление.
  • Po - Атмосферное давление - измеренное на уровне метеостанции атмосферное давление.
  • Tmin - Минимальная температура - минимум температуры воздуха на высоте 2 м над землей.
  • Tmax - Максимальная температура - максимум температуры воздуха на высоте 2 м над землей.
  • R - Количество осадков - Количество выпавших осадков за период времени, мм. При наведении курсора мыши на число - период времени, за который выпало указанное количество осадков.
  • R24 - Количество осадков - Количество выпавших осадков за 24 часа, мм.
  • S - Снежный покров - Высота снежного покрова, см. При наведении курсора мыши на число - состояние снежного покрова и степень покрытия местности в баллах.